This is the latest recevied weather packets stored in our database for station/object K0JRF-13. If no packets are shown the sender has not sent any weather packets the latest 10 day(s).
| Time | Temp. | Humidity | Pressure | Rain* | Wind** | Luminosity | Snow |
|---|---|---|---|---|---|---|---|
| 1788154147 | 65° F | 96% | 764.3 mmHg | 0.04 in | - | - | - |
| 1788153547 | 65° F | 95% | 764.3 mmHg | 0.07 in | - | - | - |
| 1788152947 | 65° F | 95% | 764.3 mmHg | 0.07 in | - | - | - |
| 1788152347 | 65° F | 95% | 764.5 mmHg | 0.08 in | - | - | - |
| 1788151747 | 66° F | 95% | 764.5 mmHg | 0.08 in | - | - | - |
| 1788151147 | 66° F | 96% | 764.5 mmHg | 0.1 in | - | - | - |
| 1788150547 | 66° F | 95% | 765.1 mmHg | 0.1 in | - | - | - |
| 1788149947 | 66° F | 97% | 764.5 mmHg | 0.08 in | - | - | - |
| 1788149347 | 66° F | 97% | 764.8 mmHg | 0.08 in | - | - | - |
| 1788148747 | 66° F | 97% | 765.1 mmHg | 0.08 in | - | - | - |
| 1788148147 | 66° F | 97% | 765.1 mmHg | 0.08 in | - | - | - |
| 1788147547 | 66° F | 97% | 765.1 mmHg | 0.07 in | - | - | - |
| 1788146947 | 66° F | 96% | 765.3 mmHg | 0.07 in | - | - | - |
| 1788146348 | 66° F | 96% | 765.3 mmHg | 0.06 in | - | - | - |
| 1788145748 | 66° F | 96% | 765.3 mmHg | 0.06 in | - | - | - |
| 1788145147 | 66° F | 96% | 765.3 mmHg | 0.05 in | - | - | - |
| 1788144548 | 66° F | 97% | 765.1 mmHg | 0.04 in | - | - | - |
| 1788143947 | 67° F | 96% | 765.1 mmHg | 0.04 in | - | - | - |
| 1788143347 | 67° F | 96% | 765.3 mmHg | 0.04 in | - | - | - |
| 1788142747 | 67° F | 96% | 765.1 mmHg | 0.05 in | - | - | - |
| 1788142148 | 67° F | 97% | 765.3 mmHg | 0.05 in | - | - | - |
| 1788141548 | 67° F | 97% | 765.3 mmHg | 0.05 in | - | - | - |
| 1788140947 | 67° F | 96% | 765.3 mmHg | 0.04 in | - | - | - |
| 1788140347 | 67° F | 96% | 765.6 mmHg | 0.03 in | - | - | - |
| 1788139747 | 67° F | 96% | 765.6 mmHg | 0.02 in | - | - | - |
* Rain latest hour (hover to see other rain measurements)
** Current wind speed in m/s (hover to see current wind gust speed)